AO-07 1 07530U 74089B 17229.53731410 -.00000034 00000-0 64349-4 0 9996 2 07530 101.6363 197.0271 0011744 201.7483 272.4769 12.53628247956317 UO-11 1 14781U 84021B 17229.57116978 .00000092 00000-0 17572-4 0 9998 2 14781 097.6922 273.0070 0008574 009.1538 350.9831 14.82917595778447 LO-19 1 20442U 90005G 17229.80419497 -.00000022 00000-0 81724-5 0 9991 2 20442 98.5772 165.6994 0011236 331.3688 28.6878 14.32866594440440 HUBBLE 1 20580U 90037B 17229.67181562 .00000497 00000-0 19599-4 0 9998 2 20580 28.4702 321.2308 0002919 112.0603 5.9424 15.08816647299586 MET-2/21 1 22782U 93055A 17229.47864522 .00000045 00000-0 27532-4 0 9994 2 22782 082.5521 334.9439 0021089 258.1763 151.3085 13.83803322209909 AO-27 1 22825U 93061C 17229.34620011 .00000003 00000-0 18896-4 0 9995 2 22825 098.8179 195.6983 0008930 146.4842 213.6906 14.30002938245876 IO-26 1 22826U 93061D 17229.50311304 -.00000001 00000-0 17229-4 0 9994 2 22826 098.8121 195.9321 0009615 137.2978 222.8952 14.30332141246092 FO-29 1 24278U 96046B 17229.61239637 -.00000001 00000-0 34063-4 0 9998 2 24278 098.5541 104.6751 0350416 178.0771 182.1811 13.53077432036939 NOAA-15 1 25338U 98030A 17229.61852591 .00000038 00000-0 34850-4 0 9994 2 25338 98.7817 240.6505 0011171 34.0778 326.1117 14.25811210 1765 GO-32 1 25397U 98043D 17229.76285502 -.00000019 00000-0 10556-4 0 9998 2 25397 98.6126 170.8119 0001656 137.0819 223.0489 14.23626434992557 ISS 1 25544U 98067A 17229.86364583 -.00026460 00000-0 -39340-3 0 9996 2 25544 51.6384 90.8670 0005763 144.8027 49.9195 15.54133690 71345 NO-44 1 26931U 01043C 17229.56571080 -.00000043 00000-0 15279-4 0 9998 2 26931 067.0513 292.8317 0007079 257.9987 102.0321 14.30469445829050 SO-50 1 27607U 02058C 17229.55151022 -.00000011 00000-0 18879-4 0 9999 2 27607 064.5560 298.0428 0030923 065.0617 295.3692 14.75347762788033 CO-55 1 27844U 03031E 17229.57063095 .00000056 00000-0 45227-4 0 9993 2 27844 098.6899 237.6845 0010008 163.0856 197.0657 14.22052610733000 CO-57 1 27848U 03031J 17229.58705858 .00000038 00000-0 37391-4 0 9991 2 27848 098.6992 237.9854 0009724 172.4483 187.6842 14.21665538732899 RS-22 1 27939U 03042A 17229.86372535 .00000093 00000-0 25183-4 0 9994 2 27939 97.9477 12.6454 0013717 35.9744 81.7635 14.66586567742353 NOAA-18 1 28654U 05018A 17229.61739196 .00000005 00000-0 27976-4 0 9992 2 28654 99.1800 253.3247 0013290 258.7251 101.2427 14.12345155630923 CO-58 1 28895U 05043F 17229.43705254 .00000124 00000-0 32619-4 0 9997 2 28895 97.8716 28.9284 0015750 313.2638 46.7250 14.63420400629442 Falconsat-3 1 30776U 07006E 17229.73083866 .00002928 00000-0 92529-4 0 9990 2 30776 35.4363 36.0998 0002808 178.9010 181.1722 15.32546427577705 CO-65 1 32785U 08021C 17229.50754681 .00000242 00000-0 32079-4 0 9996 2 32785 097.5643 250.9725 0012269 331.6387 028.4161 14.87923345503941 AAUSAT2 1 32788U 08021F 17229.65469173 .00000577 00000-0 59303-4 0 9994 2 32788 97.5550 263.3113 0010348 287.4064 72.6025 14.93937962504854 DO-64 1 32789U 08021G 17229.19455912 .00000917 00000-0 68762-4 0 9997 2 32789 097.5541 286.1306 0011291 251.4080 108.5921 15.05030771505940 CO-66 1 32791U 08021J 17229.74833736 .00000417 00000-0 48327-4 0 9995 2 32791 97.5605 255.7559 0012213 313.3464 46.6736 14.90271391504319 RS-30 1 32953U 08025A 17229.85415699 .00000024 00000-0 98830-4 0 9993 2 32953 82.5026 201.3055 0019474 146.9741 213.2559 12.43078554419088 PRISM 1 33493U 09002B 17229.77744466 .00001048 00000-0 99643-4 0 9997 2 33493 98.1605 114.7859 0013912 237.2488 122.7392 14.95750654464981 NOAA-19 1 33591U 09005A 17229.62587870 .00000123 00000-0 91829-4 0 9998 2 33591 99.0982 197.3420 0015050 98.5941 261.6936 14.12202865439339 TISAT-1 1 36799U 10035E 17229.57367410 .00000455 00000-0 52687-4 0 9993 2 36799 098.0686 353.5693 0013669 122.7751 237.4785 14.90447699384720 JUGNU 1 37839U 11058B 17228.75378852 .00000297 00000-0 16617-4 0 9993 2 37839 019.9618 083.2336 0018985 131.0407 299.5524 14.12589273302168 SRMSAT 1 37841U 11058D 17229.05750581 .00000290 00000-0 14477-4 0 9998 2 37841 19.9719 124.3280 0011820 30.4739 105.6016 14.10580300301880 AO-71 1 37854U 11061E 17229.71384331 .00000554 00000-0 37987-4 0 9999 2 37854 101.6945 134.6262 0166795 252.8488 105.4402 15.04262073316185 HRBE 1 37855U 11061F 17229.69957066 .00000712 00000-0 45587-4 0 9999 2 37855 101.7072 132.3706 0179969 259.8035 98.2836 15.03227303316038 ALMASAT-1 1 38078U 12006B 17229.63048728 .00022753 37719-5 24913-3 0 9997 2 38078 069.4404 326.7557 0303498 200.8501 158.0087 15.24000434294145 HORYU-2 1 38340U 12025D 17229.60086001 .00000206 00000-0 38474-4 0 9998 2 38340 098.3775 235.6894 0013048 096.1445 264.1250 14.75369945271936 RS-40 1 38735U 12041C 17229.80576328 .00000015 00000-0 40459-4 0 9996 2 38735 82.4750 285.7666 0015678 252.1623 107.7747 12.42574998229346 BEESAT-3 1 39134U 13015E 17229.55708305 .00001335 00000-0 74207-4 0 9990 2 39134 064.8638 028.3427 0038806 253.7920 105.8934 15.17951403238410 BEESAT-2 1 39136U 13015G 17229.75848113 .00000825 00000-0 53583-4 0 9993 2 39136 64.8700 39.2491 0033741 273.5559 86.1708 15.15213137238609 ZACUBE-1 1 39417U 13066B 17229.58691683 .00000229 00000-0 35412-4 0 9999 2 39417 097.6248 268.8365 0060765 069.7751 290.9982 14.80740950201863 TRITON-1 1 39427U 13066M 17229.55749407 .00000171 00000-0 35234-4 0 9993 2 39427 097.6375 240.8026 0115070 151.5048 209.2515 14.67486462199858 GOMX-1 1 39430U 13066Q 17229.62563159 .00000184 00000-0 42676-4 0 9995 2 39430 97.6678 223.9891 0151055 208.5374 150.7498 14.58897458198881 LO-74 1 39440U 13066AA 17229.61909187 .00000231 00000-0 39206-4 0 9998 2 39440 97.6255 257.5653 0082314 100.9463 260.1022 14.75480788201154 AO-73 1 39444U 13066AE 17229.67116307 .00000278 00000-0 40862-4 0 9993 2 39444 97.6264 270.0494 0059901 66.1369 294.6106 14.81481025200713 SPROUT 1 39770U 14029E 17229.83215960 .00000427 00000-0 54673-4 0 9999 2 39770 97.8752 328.6077 0010541 121.1809 239.0427 14.86313661175292 DUCHIFAT-1 1 40021U 14033M 17229.74922767 .00000368 00000-0 44064-4 0 9992 2 40021 97.9147 142.9960 0014613 97.0641 263.2239 14.89940662171767 NANOSATCBR1 1 40024U 14033Q 17229.71211252 .00000387 00000-0 46777-4 0 9996 2 40024 97.9103 141.7487 0013826 98.3914 261.8871 14.89259153171703 EO-79 1 40025U 14033R 17229.45574599 .00000269 00000-0 34987-4 0 9993 2 40025 097.9082 140.4425 0014017 102.1732 258.1055 14.88455475171092 DTUSAT-2 1 40030U 14033W 17229.54373346 .00000259 00000-0 34192-4 0 9993 2 40030 097.9047 139.5803 0013508 096.8801 263.3953 14.88077576171062 EO-80 1 40032U 14033Y 17229.72312669 .00000261 00000-0 34441-4 0 9996 2 40032 97.9053 139.7649 0013447 96.8740 263.4006 14.88012430171591 ANTELSAT 1 40034U 14033AA 17229.59493053 .00000195 00000-0 36588-4 0 9990 2 40034 097.8507 111.5978 0060509 095.1432 265.6686 14.73725877169438 VELOX-1 1 40057U 14034E 17229.73737563 .00000271 00000-0 45958-4 0 9995 2 40057 98.1921 330.8917 0010189 214.6075 145.4472 14.77161449168841 DAURIA DX 1 1 40071U 14037C 17229.74738495 .00000100 00000-0 20282-4 0 9994 2 40071 98.3433 343.2789 0007733 207.8812 152.1989 14.81035494168085 UKUBE-1 1 40074U 14037F 17229.80546997 .00000284 00000-0 41634-4 0 9995 2 40074 98.3529 347.5115 0003977 197.3813 162.7257 14.83538345168310 HODOYOSHI-1 1 40299U 14070B 17229.79416134 .00000517 00000-0 25415-4 0 9996 2 40299 97.4008 311.5960 0011707 233.0583 284.3916 15.22338762154315 CHUBUSAT-1 1 40300U 14070C 17229.80812352 .00000674 00000-0 33442-4 0 9996 2 40300 97.3927 308.5712 0019012 243.9547 233.1227 15.20947099154151 QSAT-EOS 1 40301U 14070D 17229.87559064 .00001319 00000-0 57994-4 0 9997 2 40301 97.3865 308.8602 0026007 239.0629 184.1747 15.23378941154220 FIREBIRD FU3 1 40377U 15003B 17229.54694946 .00003006 00000-0 12983-3 0 9993 2 40377 099.1222 065.7547 0135993 158.6585 202.0390 15.15592981140298 FIREBIRD FU4 1 40378U 15003C 17229.80241604 .00002847 00000-0 12303-3 0 9990 2 40378 99.1224 66.1030 0136197 157.7199 203.0024 15.15613397140347 GRIFEX 1 40379U 15003D 17229.49048132 .00001968 00000-0 91623-4 0 9993 2 40379 099.1248 063.2492 0141997 167.0773 193.4154 15.13112941140141 NO-84 1 40654U 15025D 17228.39186963 .00005687 00000-0 10774-3 0 00536 2 40654 054.9945 327.3928 0180925 058.0118 303.8244 15.34303186008959 NO-83 1 40655U 15025E 17228.48398701 .00008319 00000-0 12395-3 0 00583 2 40655 054.9805 298.4490 0147949 074.4121 287.3083 15.44558995008994 DEORBITSAIL 1 40719U 15032E 17229.74087289 .00000375 00000-0 61656-4 0 9991 2 40719 97.9730 122.7077 0015530 309.6454 50.3384 14.76108273113400 NUDT-PHONESAT 1 40900U 15049B 17229.81005335 .00002269 00000-0 10941-3 0 9995 2 40900 97.4436 236.8669 0014474 18.1421 342.0327 15.19641121105812 XW-2A 1 40903U 15049E 17229.76581128 .00002155 00000-0 57871-4 0 9999 2 40903 97.4184 256.2246 0016107 49.0864 311.1773 15.38972256107115 XW-2C 1 40906U 15049H 17229.81539281 .00000756 00000-0 44358-4 0 9992 2 40906 97.4560 234.0789 0015409 7.9493 352.1980 15.14619768105569 XW-2D 1 40907U 15049J 17229.86054211 .00000814 00000-0 47403-4 0 9992 2 40907 97.4530 233.8707 0014706 6.2021 353.9391 15.14729308105570 LILACSAT-2 1 40908U 15049K 17229.85407676 .00000417 00000-0 27102-4 0 9992 2 40908 97.4633 233.5812 0016221 4.1348 356.0014 15.13169754105491 XW-2F 1 40910U 15049M 17229.82626646 .00001206 00000-0 66764-4 0 9996 2 40910 97.4548 234.6198 0015443 3.5414 356.5925 15.15650180105485 XW-2B 1 40911U 15049N 17229.86820303 .00000800 00000-0 46676-4 0 9996 2 40911 97.4572 234.2852 0014622 6.5958 353.5464 15.14689556105472 DCBB 1 40912U 15049P 17229.87045522 .00001116 00000-0 58502-4 0 9992 2 40912 97.4519 236.6788 0015385 354.8485 124.1968 15.17764141105646 TW-1C 1 40926U 15051B 17229.87366006 .00005287 00000-0 11993-3 0 9998 2 40926 97.2256 268.9697 0009714 311.4522 167.5925 15.43454081106434 TW-1A 1 40928U 15051D 17229.77004161 .00002554 00000-0 73871-4 0 9998 2 40928 97.2229 264.4770 0012173 345.6908 104.5022 15.36474081106151 IO-86 1 40931U 15052B 17229.71197894 .00000646 00000-0 10121-5 0 9993 2 40931 5.9993 154.0165 0013212 31.6755 328.4351 14.76536142102077 GomX-3 1 40949U 98067HA 16292.18357804 .08527750 12374-4 77882-3 0 9992 2 40949 51.6055 106.7696 0006699 286.1344 73.8944 16.38002265 59645 LQSat 1 40958U 15057A 17229.72547008 .00000046 00000-0 14928-4 0 9996 2 40958 97.9744 303.9589 0017013 226.5471 133.4323 14.72977591100174 AO-85 1 40967U 15058D 17228.42601578 .00000108 00000-0 31770-4 0 00596 2 40967 064.7769 036.1503 0174740 055.7896 305.9665 14.75467634008681 ATHENOXAT-1 1 41168U 15077C 17229.69481870 .00002028 00000-0 76925-4 0 9999 2 41168 14.9850 80.0502 0012108 150.3443 264.2253 15.11723421 92367 ChubuSat-2 1 41338U 16012B 17229.58317432 .00000350 00000-0 20768-4 0 9998 2 41338 031.0038 082.3209 0014077 306.7206 053.2136 14.99772719082212 ChubuSat-3 1 41339U 16012C 17229.76922020 .00000294 00000-0 16279-4 0 9993 2 41339 31.0119 80.1880 0013966 314.5973 45.3516 14.99975611 82229 Horyu-4 1 41340U 16012D 17229.64923897 .00000509 00000-0 32533-4 0 9995 2 41340 31.0058 78.0198 0014342 322.8375 37.1268 15.00645044 82251 OUFTI-1 1 41458U 16025C 17229.74955930 .00000968 00000-0 55445-4 0 9999 2 41458 98.1797 270.8484 0174879 84.3482 277.7653 15.03358950 71827 e-st@r-II 1 41459U 16025D 17229.57753792 .00001584 00000-0 87703-4 0 9990 2 41459 098.1823 270.6068 0176337 085.0725 277.0605 15.03201319071795 AAUSAT4 1 41460U 16025E 17229.73715471 .00002572 00000-0 13988-3 0 9993 2 41460 98.1729 270.9113 0168101 82.3823 279.6446 15.04148531 71849 MinXSS 1 41474U 98067HU 17125.52237589 .05724416 12300-4 86147-3 0 9995 2 41474 051.6449 208.6967 0008167 329.0747 030.9230 16.33400422055623 CADRE 1 41475U 98067HV 17003.74787607 .12518598 12537-4 55989-3 0 9998 2 41475 51.6110 110.0165 0004040 312.3134 47.7551 16.43344525 36494 NODES 1 1 41477U 98067HX 17229.72723594 .00148986 19501-4 43357-3 0 9994 2 41477 51.6239 41.0712 0003677 298.2853 61.7783 15.92592136 71841 NODES 2 1 41478U 98067HY 17229.73721449 .00133521 17742-4 41498-3 0 9991 2 41478 51.6278 41.9509 0003310 295.3212 64.7451 15.91379938 71835 LO-87 1 41557U 16033B 17229.86899931 .00001479 00000-0 58131-4 0 9992 2 41557 97.4607 309.3841 0015221 144.7413 215.4836 15.27208418 67842 NuSat2 1 41558U 16033C 17229.84270984 .00001511 00000-0 59657-4 0 9993 2 41558 97.4634 309.4195 0014699 143.4045 216.8201 15.27026863 67833 Lapan A3 1 41603U 16040E 17229.82348895 .00000253 00000-0 15175-4 0 9996 2 41603 97.4556 291.0548 0012294 214.8783 257.2124 15.19381407 64015 Swayam 1 41607U 16040J 17229.38397690 .00001539 00000-0 72508-4 0 9999 2 41607 97.4557 291.0507 0013313 217.0403 142.9915 15.20964938 63905 Pratham 1 41783U 16059A 17229.24266603 .00000053 00000-0 19882-4 0 9994 2 41783 98.1621 289.9687 0032902 331.4674 28.4726 14.62850107 47526 AlSat 1N 1 41789U 16059G 17229.72741752 .00000054 00000-0 19613-4 0 9999 2 41789 98.1625 291.0678 0027683 324.4276 35.5078 14.64064322 47617 ScatSat 1 41790U 16059H 17229.59734706 .00000002 00000-0 11626-4 0 9996 2 41790 098.3052 277.1173 0017492 318.4756 041.5109 14.51718653047164 TY-1 1 41844U 16066D 17229.74538297 .00000959 00000-0 44730-4 0 9991 2 41844 97.4058 235.9736 0017118 28.1725 57.5793 15.22169910 42709 CAS-2T 1 41845U 16066E 17229.84667475 .00000098 00000-0 24743-4 0 9990 2 41845 98.7762 246.9464 0367730 65.3143 298.5862 14.37774497 40351 Pegasus-1 1 41846U 16066F 17229.58374511 .00000444 00000-0 77263-4 0 9998 2 41846 098.7792 246.4189 0370360 067.6038 296.3945 14.37062321040292 STARS-C 1 41895U 98067KR 17229.46575134 .00026182 00000-0 27282-3 0 9996 2 41895 051.6375 084.1020 0004717 179.0690 181.0315 15.64348167037578 Tancredo 1 1 41931U 98067KT 17229.76240890 .00083160 00000-0 57352-3 0 9998 2 41931 51.6343 76.2759 0005379 162.2768 197.8420 15.73849185 33271 TO-89 1 41932U 98067KU 17229.51678399 .00013215 00000-0 16244-3 0 9990 2 41932 051.6406 086.7292 0005920 136.8989 223.2469 15.60613314033113 AOBA-V3LOX3 1 41935U 98067KX 17229.74807691 .00016599 00000-0 19875-3 0 9998 2 41935 51.6403 85.2682 0005334 141.4294 218.7082 15.61088660 33256 OSNSAT 1 41939U 98067KZ 17229.62239106 .00037335 00000-0 35004-3 0 9992 2 41939 51.6374 81.3870 0006364 147.2880 212.8511 15.66799975 32548 EO-88 1 42017U 17008BX 17229.60024553 .00001631 00000-0 72029-4 0 9991 2 42017 097.4904 290.9281 0006900 020.8677 339.2840 15.23164530027834 HAVELSAT 1 42700U 98067LH 17229.84170108 .00014619 00000-0 20414-3 0 9998 2 42700 51.6397 89.6262 0006663 186.4900 173.6006 15.57100025 14541 SOMP2 1 42701U 98067LJ 17229.84805852 .00013500 00000-0 19058-3 0 9990 2 42701 51.6404 89.6717 0006581 187.1344 172.9556 15.56881804 14536 Columbia 1 42702U 98067LK 17229.85193363 .00032582 00000-0 41448-3 0 9998 2 42702 51.6396 88.9458 0007097 181.6977 178.3993 15.59032271 14472 PHOENIX 1 42706U 98067LP 17229.84517020 .00012420 00000-0 17552-3 0 9999 2 42706 51.6403 89.6545 0002267 151.6642 208.4474 15.56955717 14453 X-CubeSat 1 42707U 98067LQ 17229.84607585 .00013682 00000-0 19238-3 0 9990 2 42707 51.6398 89.6575 0002280 152.2538 207.8576 15.56992235 14447 qbee 1 42708U 98067LR 17229.84829653 .00013327 00000-0 18788-3 0 9998 2 42708 51.6399 89.6727 0002362 153.3251 206.7862 15.56947270 14404 ZA-AeroSat 1 42713U 98067LU 17229.86539409 .00011411 00000-0 16454-3 0 9993 2 42713 51.6400 89.7865 0003207 124.5272 235.6022 15.56502021 14117 LINK 1 42714U 98067LV 17229.85727437 .00018084 00000-0 25200-3 0 9995 2 42714 51.6394 89.7296 0003420 133.2848 226.8429 15.56985982 14227 UPSat 1 42716U 98067LX 17229.84418784 .00015349 00000-0 21337-3 0 9996 2 42716 51.6398 89.6443 0005004 185.9554 174.1379 15.57185188 14246 SpaceCube 1 42717U 98067LY 17229.85565331 .00013181 00000-0 18677-3 0 9994 2 42717 51.6398 89.7207 0005006 186.6382 173.4544 15.56813435 13488 Hoopoe 1 42718U 98067LZ 17229.85018937 .00014369 00000-0 20144-3 0 9991 2 42718 51.6402 89.6857 0004999 185.6069 174.4868 15.57017208 13481 Challenger 1 42721U 98067MA 17229.85639217 .00020206 00000-0 27777-3 0 9991 2 42721 51.6394 89.7226 0008382 171.1009 189.0133 15.57240609 13187 NJUST-1 1 42722U 98067MB 17229.88360040 .00011778 00000-0 17110-3 0 9994 2 42722 51.6399 89.9051 0008093 172.0844 188.0276 15.56240291 13180 UNSW-EC0 1 42723U 98067MC 17229.87227356 .00016105 00000-0 22746-3 0 9996 2 42723 51.6404 89.8312 0008091 171.1981 188.9154 15.56693683 13166 DUTHsat 1 42724U 98067MD 17229.86319440 .00019816 00000-0 27421-3 0 9999 2 42724 51.6398 89.7695 0007359 172.7252 187.3848 15.57085344 13080 LO-90 1 42725U 98067ME 17229.88581914 .00013768 00000-0 19854-3 0 9990 2 42725 51.6403 89.9215 0007058 173.8376 186.2704 15.56281744 13083 nSIGHT1 1 42726U 98067MF 17229.83779746 .00010447 00000-0 15598-3 0 9990 2 42726 51.6405 90.3513 0006943 174.7867 185.3198 15.55643400 13087 QBITO 1 42728U 98067MH 17229.87500019 .00015392 00000-0 21883-3 0 9999 2 42728 51.6406 89.8520 0004278 176.0197 184.0830 15.56576165 12892 Aalto-2 1 42729U 98067MJ 17229.87482681 .00014779 00000-0 21038-3 0 9994 2 42729 51.6400 89.8491 0004288 176.1353 183.9673 15.56578726 12900 SUSat 1 42730U 98067MK 17229.87742207 .00012299 00000-0 17694-3 0 9997 2 42730 51.6397 89.8653 0004288 174.0234 186.0809 15.56477766 12897 i-INSPIRE II 1 42731U 98067ML 17229.87052490 .00018067 00000-0 25355-3 0 9998 2 42731 51.6395 89.8129 0008309 127.9231 232.2513 15.56769272 12944 PolyITAN-2-SAU 1 42732U 98067MM 17229.87305978 .00015109 00000-0 21431-3 0 9996 2 42732 51.6392 89.8299 0008275 127.2840 232.8907 15.56632752 12946 SNUSAT-1 1 42733U 98067MN 17229.87838050 .00014942 00000-0 21324-3 0 9994 2 42733 51.6394 89.8659 0008171 128.4457 231.7269 15.56477906 12948 ExAlta-1 1 42734U 98067MP 17229.87025246 .00016383 00000-0 23049-3 0 9997 2 42734 51.6396 89.8127 0009890 149.6291 210.5275 15.56766645 12898 Aoxiang-1 1 42735U 98067MQ 17229.23975744 .00009064 00000-0 13312-3 0 9995 2 42735 051.6399 093.1043 0008795 166.8665 193.2557 15.56277086014210 BeEagleSat 1 42736U 98067MR 17229.88107386 .00012997 00000-0 18713-3 0 9995 2 42736 51.6397 89.8876 0008746 168.4716 191.6477 15.56371464 13000 Atlantis 1 42737U 98067MS 17229.06623006 .00021567 00000-0 28678-3 0 9992 2 42737 51.6388 93.4427 0009075 163.8201 196.3083 15.58081487 12771 CAS-4B 1 42759U 17034B 17229.75083924 .00000170 00000-0 24216-4 0 9998 2 42759 43.0199 308.6967 0008322 3.3088 144.4937 15.08944165 9601 CAS-4A 1 42761U 17034D 17229.74772250 .00000172 00000-0 24326-4 0 9991 2 42761 43.0205 308.6732 0008544 4.8497 142.8781 15.09018108 9595 UCLSat 1 42765U 17036A 17229.54338500 .00001451 00000-0 68861-4 0 9994 2 42765 097.4451 288.6618 0013628 064.2814 295.9827 15.20794469009132 NIUSat 1 42766U 17036B 17229.58898025 .00001122 00000-0 55877-4 0 9990 2 42766 097.4454 288.6033 0017534 049.5731 310.7029 15.19528490008418 LituanicaSAT 2 1 42768U 17036D 17229.38689678 .00002210 00000-0 10634-3 0 9992 2 42768 97.4453 288.4119 0017606 53.5942 306.6914 15.19706558 8398 InflateSail 1 42770U 17036F 17229.74979459 .00493836 00000-0 12123-1 0 9995 2 42770 97.4473 289.4603 0007240 140.3919 219.7856 15.38683746 8421 Aalto 1 1 42775U 17036L 17229.37335863 .00000927 00000-0 46094-4 0 9996 2 42775 097.4453 288.4319 0015733 051.6468 308.6178 15.20015900008333 URSA MAIOR 1 42776U 17036M 17229.24034702 .00000930 00000-0 46185-4 0 9996 2 42776 097.4455 288.3054 0015605 052.5272 307.7379 15.20054015008313 Max Valier Sat 1 42778U 17036P 17230.01642446 .00001179 00000-0 57101-4 0 9991 2 42778 97.4470 289.1144 0014165 56.6764 303.5787 15.20440634 8427 Pegasus 1 42784U 17036V 17229.74551845 .00001332 00000-0 63683-4 0 9991 2 42784 97.4454 288.8523 0014142 63.3857 296.8825 15.20659410 8382 NUDATSat 1 42787U 17036Y 17229.54401005 .00001914 00000-0 89787-4 0 9993 2 42787 097.4454 288.6621 0013808 064.6299 295.6364 15.20803091008194 SUCHAI 1 1 42788U 17036Z 17229.28155295 .00001485 00000-0 70437-4 0 9997 2 42788 097.4453 288.4007 0013824 065.1945 295.0727 15.20762019008384 SKCUBE 1 42789U 17036AA 17229.54325377 .00001471 00000-0 69767-4 0 9996 2 42789 097.4452 288.6623 0013624 064.4299 295.8343 15.20799954008348 VZLUSAT 1 1 42790U 17036AB 17229.40895173 .00001671 00000-0 78608-4 0 9995 2 42790 097.4450 288.5339 0013369 065.4001 294.8626 15.20885880008324 VENTA 1 1 42791U 17036AC 17229.60522220 .00001345 00000-0 63869-4 0 9999 2 42791 097.4452 288.7321 0013223 065.0490 295.2117 15.20900876008342 Robusta 1B 1 42792U 17036AD 17229.60461669 .00001506 00000-0 71107-4 0 9992 2 42792 097.4449 288.7309 0013203 065.4737 294.7874 15.20924235008362 D-SAT 1 42794U 17036AF 17229.39747830 .00000881 00000-0 42611-4 0 9990 2 42794 097.4447 288.5467 0011417 064.9590 295.2830 15.21161260008327 BIRD-J 1 42820U 98067MU 17229.79964392 .00012208 00000-0 18068-3 0 9995 2 42820 51.6399 90.8423 0004009 116.7122 243.4280 15.55710097 6447 BIRD-G 1 42821U 98067MV 17229.80079080 .00011749 00000-0 17452-3 0 9994 2 42821 51.6399 90.8502 0004058 118.1733 241.9669 15.55655031 6422 BIRD-M 1 42822U 98067MW 17229.80142559 .00011979 00000-0 17790-3 0 9997 2 42822 51.6400 90.8546 0004093 120.3881 239.7515 15.55638306 6423 BIRD-B 1 42823U 98067MX 17229.80260814 .00012162 00000-0 18065-3 0 9994 2 42823 51.6402 90.8636 0007618 134.9203 225.2408 15.55598596 6428 BIRD-N 1 42824U 98067MY 17229.03312118 .00010193 00000-0 15301-3 0 9997 2 42824 51.6403 94.7243 0007496 132.9165 227.2456 15.55521995 6295 TechnoSat 1 42829U 17042E 17229.56946692 .00000218 00000-0 27694-4 0 9990 2 42829 097.6109 138.0437 0015521 125.2844 234.9829 14.90640493005096 Mayak 1 42830U 17042F 17229.83715205 .00000749 00000-0 81648-4 0 9994 2 42830 97.6114 138.3064 0015804 121.6406 238.6357 14.90692681 5139 /EX